Wind_Speed
31 31 31 30 31 32 33 33 34 33 33 33 33 33 33 33 32 32 32 32 31 31 31 32 32 33 34 34 34 34 34 34 35 34 35 34 35 36 36 36 37 37 38 38
31 32 32 32 31 32 33 33 33 34 33 32 32 33 33 33 33 32 32 32 32 32 32 32 32 32 32 33 33 33 33 34 34 34 34 33 34 35 35 36 36 36 37 38
32 32 33 33 31 32 33 33 33 32 31 32 32 32 33 33 33 32 33 33 32 32 31 31 31 31 31 32 32 32 32 33 33 33 33 33 34 34 34 34 35 35 35 36
34 33 34 33 32 33 33 32 32 32 31 31 31 32 32 32 32 32 32 32 31 31 31 31 31 31 30 31 32 32 32 32 33 33 33 34 34 34 34 34 34 34 34 34
33 34 34 33 32 32 32 31 30 31 31 31 31 31 31 32 32 31 32 31 31 31 31 31 31 30 30 30 31 31 32 31 31 32 33 33 33 33 33 32 32 32 32 32
31 32 32 31 30 30 31 30 30 30 31 31 32 31 31 32 32 32 32 31 31 31 31 30 30 30 30 30 30 30 30 30 30 31 32 33 32 32 32 31 31 31 31 30
30 31 31 30 29 28 30 30 29 29 29 30 30 30 30 30 31 31 31 31 30 30 29 29 29 29 29 28 29 28 29 29 30 31 31 31 31 31 30 30 30 29 29 29
30 31 30 29 28 28 29 29 29 28 28 29 29 28 28 28 28 29 29 28 28 28 27 27 26 26 26 26 26 26 26 27 27 28 28 28 27 27 28 28 27 26 26 26
29 29 29 27 28 29 29 29 28 27 27 27 27 27 27 27 26 26 26 26 26 26 25 25 24 24 24 24 24 24 24 24 25 25 25 25 25 24 24 24 24 23 23 23
28 27 27 28 28 28 28 27 27 26 25 26 25 25 25 24 24 23 24 24 24 24 24 24 24 23 23 23 23 23 24 23 23 24 23 23 22 22 22 21 21 21 20 20
27 28 28 27 28 28 28 26 26 25 25 25 25 24 24 23 22 22 22 23 23 23 23 22 22 22 22 23 23 23 23 23 22 22 21 21 20 20 19 19 19 19 19 19
27 28 28 27 27 27 26 25 25 25 25 25 25 25 24 23 22 22 22 23 23 23 22 22 21 21 22 22 22 23 23 22 21 21 20 20 19 19 18 18 18 17 18 18
27 26 26 25 25 25 25 25 25 25 25 25 25 25 24 24 23 23 23 23 23 23 22 21 21 21 21 22 22 22 21 21 20 20 19 18 18 18 17 16 16 16 16 16
25 25 24 24 24 24 25 25 25 26 26 26 26 25 25 24 23 23 23 22 23 23 22 22 22 21 21 22 21 20 19 19 18 18 17 17 17 16 16 16 15 15 14 14
24 24 24 24 24 24 25 25 26 26 26 26 26 26 25 24 23 23 22 22 21 21 21 21 20 20 20 20 19 19 18 18 17 16 16 16 15 15 15 15 15 14 14 13
24 24 24 24 24 24 25 25 25 25 25 26 25 25 24 24 23 22 22 21 20 20 19 18 18 18 18 18 18 17 17 17 16 15 14 14 14 14 14 14 14 14 13 13
25 24 24 24 24 24 24 24 24 24 24 24 24 23 23 22 22 22 21 20 19 18 17 16 16 16 16 16 16 16 16 15 15 14 13 13 13 13 13 13 13 13 13 13
25 25 24 23 23 23 23 23 23 23 24 24 23 21 20 20 20 19 19 19 18 17 17 16 15 15 15 15 15 15 14 14 14 13 13 13 13 13 12 12 12 12 12 12
24 24 24 24 23 23 23 22 22 22 22 22 20 19 18 18 17 17 16 16 16 15 15 15 15 14 14 13 14 13 12 12 12 12 12 12 12 11 11 11 11 11 11 11
25 24 24 24 24 23 23 22 22 22 21 20 18 17 16 16 15 15 15 15 14 14 15 15 14 14 12 12 12 11 11 11 11 10 10 10 10 9 9 10 10 10 11 11
25 25 25 24 24 24 24 23 22 21 19 18 17 16 15 14 14 14 14 14 13 13 13 13 13 12 11 11 10 10 10 10 9 9 8 8 8 8 8 8 9 10 10 10
24 24 24 24 24 24 23 23 21 20 18 17 16 15 14 13 13 13 13 13 13 12 12 12 12 11 10 10 9 9 9 8 8 8 7 7 7 7 8 8 9 9 9 9
23 23 22 22 22 22 21 20 19 18 17 16 15 14 13 13 12 12 12 12 12 12 11 10 10 9 9 9 8 7 7 7 7 7 7 6 7 7 8 8 8 8 8 8
22 22 21 21 20 20 19 18 17 17 16 15 15 14 13 13 12 12 11 11 11 11 10 9 9 8 8 8 7 7 6 6 6 6 6 7 7 7 7 7 7 7 7 7
21 20 20 19 19 18 17 17 17 16 15 15 14 14 13 13 12 12 11 11 10 10 9 9 9 8 8 7 7 7 7 6 6 6 7 7 7 7 7 7 7 7 6 6
20 20 19 19 19 18 17 17 16 15 14 14 13 13 12 12 12 11 10 10 10 9 9 9 9 9 9 8 8 7 7 7 7 7 7 7 7 7 7 7 6 6 6 6
19 19 19 18 18 17 17 16 15 14 13 13 13 13 13 12 12 11 10 10 10 10 10 9 9 9 9 9 8 8 8 7 7 7 7 7 6 6 6 6 6 6 6 6
Wind_Direction
281 279 280 281 281 282 282 282 282 284 283 284 282 282 283 283 281 279 277 276 275 275 274 274 274 274 274 273 273 273 274 275 274 273 273 272 271 270 270 270 270 270 268 266
279 279 280 281 282 282 282 281 282 282 282 282 281 281 282 282 280 278 276 275 274 275 276 276 276 276 275 274 274 274 275 275 275 274 274 273 272 271 270 270 270 271 269 268
282 281 281 281 284 283 282 282 281 281 281 280 280 280 281 282 282 280 278 278 277 276 276 276 276 276 275 275 275 274 275 275 275 275 275 274 274 272 271 271 271 271 270 269
282 282 282 284 285 284 283 282 280 280 281 281 282 281 281 281 281 281 280 279 278 277 276 276 277 278 278 277 275 275 276 276 276 275 276 276 276 275 274 273 271 272 271 270
283 284 285 286 287 286 285 283 282 283 284 284 285 283 282 281 281 280 280 279 278 277 276 276 277 278 278 279 278 277 277 277 276 276 277 278 277 275 274 274 272 271 271 268
284 284 286 289 288 287 286 285 285 287 287 287 287 286 285 282 280 280 280 279 277 276 276 277 278 278 278 279 279 278 277 277 278 278 278 279 278 277 275 274 272 271 270 267
286 284 285 287 286 285 284 286 286 286 288 289 289 289 287 284 282 280 279 278 277 277 277 278 278 278 277 277 279 279 279 279 279 279 279 279 279 277 276 274 273 271 270 268
287 286 286 286 284 284 284 285 286 288 289 289 288 287 286 284 282 280 278 277 276 276 276 277 278 277 276 276 278 280 281 281 280 280 281 281 279 278 277 276 275 273 272 269
288 287 285 284 282 283 284 285 287 289 289 289 289 287 286 285 282 279 277 275 274 275 276 278 278 277 277 277 278 280 282 283 282 281 281 281 280 278 276 275 275 273 271 269
286 286 283 281 281 282 284 285 286 287 288 289 289 288 287 286 284 280 278 276 275 275 277 277 278 276 276 276 279 282 284 286 285 283 282 281 280 277 276 275 275 273 270 268
285 284 282 281 283 284 285 285 285 284 286 290 290 287 286 285 283 281 278 276 276 278 278 278 277 276 276 277 279 282 284 284 284 283 283 283 280 277 277 277 274 271 270 268
286 285 283 283 283 285 284 284 286 286 287 289 288 287 284 283 281 280 279 277 276 277 278 277 277 276 278 280 280 282 284 283 282 283 286 284 280 277 276 275 273 271 269 268
287 286 285 284 283 283 283 284 286 288 289 290 289 287 285 282 281 280 280 279 277 276 277 276 276 277 279 281 281 283 284 283 282 283 285 284 281 277 273 272 272 271 269 265
289 287 286 285 283 282 283 284 286 287 289 290 289 288 286 283 282 281 280 279 279 277 275 275 276 278 278 280 282 283 282 281 282 282 282 281 280 277 271 267 267 266 266 264
288 288 286 284 283 284 285 285 286 287 288 289 289 288 285 283 281 280 278 278 279 278 276 276 276 277 277 279 280 282 282 281 281 280 280 279 277 274 270 265 262 261 261 261
286 288 287 286 287 287 288 288 288 288 289 290 290 288 285 282 281 279 278 277 278 278 277 276 276 277 277 277 278 279 281 280 279 280 280 278 276 274 271 265 260 258 259 258
287 287 287 288 289 290 290 289 289 289 290 291 291 288 283 281 280 278 276 275 275 274 275 276 276 275 276 276 277 278 278 277 277 280 280 280 279 277 273 265 259 256 257 260
286 285 285 287 289 289 289 289 289 289 290 290 288 286 283 280 278 276 273 271 271 271 272 273 274 274 277 277 276 277 275 274 274 275 277 279 278 275 270 264 259 258 259 262
285 284 284 286 288 288 289 290 290 289 290 290 286 284 282 280 277 273 270 268 268 268 271 273 273 273 276 275 275 274 273 272 271 272 276 277 273 270 265 261 259 258 260 261
284 284 285 285 285 286 288 289 290 289 289 286 283 283 281 277 274 271 268 268 268 268 270 272 272 272 272 270 267 268 268 269 269 270 273 274 270 267 264 261 258 259 261 262
283 283 283 282 282 283 285 287 288 288 285 281 279 280 278 274 270 269 267 266 267 268 269 270 270 271 270 266 262 262 262 264 265 266 266 268 267 264 264 262 261 262 264 263
285 284 282 281 282 283 284 285 286 286 281 276 276 276 274 270 268 267 266 265 265 267 269 270 269 266 264 260 258 258 257 257 258 258 259 265 267 265 266 267 267 267 265 261
285 284 284 284 284 284 284 284 284 283 278 274 272 270 268 266 266 266 265 265 265 265 266 265 261 257 256 256 256 255 251 249 251 254 260 266 270 269 270 273 271 268 265 262
283 285 286 286 286 285 283 281 281 280 278 273 268 266 264 263 263 263 263 262 261 259 258 254 249 249 253 254 252 250 247 249 252 257 266 271 272 270 269 271 271 269 265 261
283 284 285 284 283 282 280 278 278 279 277 272 266 261 260 258 257 257 259 259 258 255 250 246 245 250 251 251 249 249 250 251 255 262 271 274 272 270 270 272 269 264 262 257
282 282 283 281 279 278 277 275 276 276 274 269 263 259 256 254 252 251 252 252 250 246 244 245 248 251 249 247 250 252 252 252 256 264 270 271 271 269 266 265 265 264 259 256
281 281 282 280 277 275 275 275 272 271 269 264 259 256 253 251 250 251 250 249 246 243 244 247 250 251 247 245 247 251 250 251 256 261 265 265 264 262 261 261 263 261 258 257
Height
5588 5586 5585 5585 5584 5583 5581 5579 5577 5577 5575 5575 5573 5571 5570 5568 5567 5565 5565 5564 5563 5562 5562 5561 5560 5560 5559 5558 5558 5557 5557 5556 5556 5555 5554 5553 5553 5553 5553 5553 5553 5553 5553 5553
5580 5579 5576 5576 5576 5574 5572 5571 5568 5567 5567 5566 5564 5562 5561 5560 5558 5557 5556 5555 5554 5554 5553 5552 5551 5550 5550 5549 5549 5548 5547 5547 5546 5545 5544 5543 5543 5543 5543 5543 5543 5543 5543 5543
5571 5570 5567 5567 5569 5566 5564 5562 5560 5558 5559 5557 5555 5554 5552 5551 5550 5548 5547 5546 5545 5544 5544 5543 5542 5541 5541 5540 5539 5539 5538 5537 5537 5536 5535 5534 5533 5533 5532 5532 5532 5533 5533 5533
5561 5561 5559 5562 5560 5557 5555 5553 5552 5550 5549 5548 5546 5545 5544 5542 5541 5539 5538 5537 5536 5536 5535 5534 5533 5533 5532 5531 5530 5530 5529 5528 5528 5527 5526 5525 5524 5523 5523 5522 5523 5523 5523 5523
5552 5550 5550 5552 5551 5548 5545 5545 5544 5542 5541 5539 5537 5536 5535 5533 5532 5531 5529 5528 5528 5527 5526 5525 5525 5524 5523 5522 5521 5521 5520 5519 5518 5517 5516 5515 5514 5514 5513 5513 5513 5513 5513 5513
5544 5542 5541 5544 5542 5539 5537 5536 5536 5534 5532 5530 5528 5527 5527 5524 5522 5521 5520 5519 5519 5518 5517 5517 5516 5516 5515 5513 5512 5512 5511 5510 5509 5508 5507 5506 5505 5505 5504 5504 5504 5504 5504 5504
5536 5533 5534 5535 5533 5531 5530 5529 5527 5525 5523 5521 5519 5518 5516 5514 5513 5512 5511 5510 5509 5509 5509 5508 5508 5507 5506 5506 5505 5504 5503 5502 5501 5500 5499 5498 5497 5496 5496 5495 5495 5495 5495 5496
5529 5527 5529 5527 5525 5524 5522 5520 5518 5517 5515 5513 5511 5509 5507 5506 5504 5503 5502 5501 5501 5500 5500 5500 5499 5499 5498 5498 5497 5496 5495 5493 5492 5491 5490 5489 5489 5488 5488 5487 5487 5487 5487 5487
5523 5523 5520 5518 5517 5515 5514 5512 5511 5509 5508 5505 5503 5501 5500 5498 5496 5495 5494 5494 5493 5493 5492 5492 5492 5491 5491 5490 5489 5488 5487 5486 5485 5484 5483 5482 5482 5481 5480 5480 5480 5480 5480 5481
5515 5514 5512 5511 5509 5508 5506 5505 5503 5501 5500 5498 5496 5494 5492 5491 5489 5488 5487 5486 5486 5486 5485 5485 5484 5484 5484 5483 5483 5482 5481 5480 5479 5478 5477 5476 5475 5474 5473 5473 5473 5473 5473 5474
5508 5507 5505 5504 5502 5501 5499 5497 5496 5494 5493 5491 5489 5487 5486 5484 5483 5481 5480 5480 5479 5479 5478 5478 5478 5477 5477 5476 5476 5475 5475 5473 5472 5471 5470 5470 5469 5468 5467 5467 5467 5467 5468 5468
5501 5500 5498 5497 5495 5493 5492 5490 5489 5488 5486 5484 5482 5480 5479 5477 5476 5475 5474 5473 5473 5472 5472 5471 5471 5471 5470 5470 5469 5469 5468 5467 5466 5465 5464 5464 5463 5462 5462 5461 5461 5461 5462 5462
5493 5492 5490 5489 5488 5486 5485 5484 5482 5481 5479 5477 5475 5473 5472 5470 5469 5468 5467 5466 5466 5465 5465 5465 5464 5464 5464 5463 5463 5462 5461 5461 5460 5459 5458 5458 5457 5457 5457 5457 5456 5457 5457 5457
5486 5485 5483 5482 5481 5479 5478 5477 5475 5474 5472 5470 5468 5466 5464 5463 5462 5461 5460 5459 5459 5458 5458 5458 5458 5458 5458 5457 5457 5456 5455 5455 5454 5454 5453 5453 5452 5452 5452 5452 5453 5453 5453 5453
5480 5478 5477 5475 5474 5473 5471 5470 5468 5467 5465 5463 5461 5459 5457 5456 5455 5454 5453 5453 5452 5451 5451 5451 5452 5452 5451 5451 5451 5450 5450 5449 5449 5449 5448 5448 5448 5447 5447 5448 5448 5449 5449 5449
5473 5471 5470 5469 5467 5466 5464 5463 5461 5460 5458 5456 5454 5452 5450 5449 5447 5447 5446 5446 5445 5445 5445 5445 5445 5446 5445 5445 5445 5445 5445 5445 5444 5444 5444 5444 5443 5443 5443 5444 5444 5445 5445 5446
5466 5465 5463 5462 5461 5459 5457 5456 5454 5452 5450 5449 5447 5445 5443 5442 5441 5440 5440 5439 5439 5439 5439 5440 5440 5440 5440 5440 5440 5440 5440 5440 5440 5440 5440 5439 5439 5439 5439 5439 5440 5441 5441 5442
5459 5458 5457 5455 5454 5452 5451 5449 5447 5445 5444 5442 5440 5438 5437 5436 5435 5434 5433 5433 5434 5434 5434 5435 5435 5435 5435 5435 5435 5435 5435 5435 5436 5436 5436 5436 5436 5435 5436 5436 5436 5437 5438 5438
5451 5450 5449 5448 5447 5445 5444 5442 5441 5439 5437 5435 5433 5432 5431 5430 5429 5428 5428 5428 5429 5429 5430 5430 5430 5430 5431 5431 5431 5431 5431 5432 5432 5432 5432 5432 5432 5432 5432 5433 5433 5434 5435 5435
5444 5443 5442 5441 5439 5438 5437 5435 5434 5432 5430 5429 5427 5427 5426 5425 5424 5424 5424 5424 5425 5425 5425 5426 5426 5426 5426 5427 5427 5427 5428 5428 5429 5429 5429 5429 5429 5429 5430 5430 5431 5431 5431 5432
5437 5436 5434 5433 5432 5431 5429 5428 5427 5426 5424 5423 5422 5421 5421 5420 5420 5420 5420 5420 5421 5421 5421 5421 5422 5422 5423 5423 5424 5424 5425 5425 5425 5426 5426 5426 5427 5427 5428 5428 5428 5428 5428 5428
5429 5428 5427 5426 5424 5423 5422 5421 5420 5419 5418 5418 5417 5417 5416 5416 5416 5416 5416 5417 5417 5417 5417 5418 5418 5419 5419 5420 5421 5421 5422 5422 5423 5423 5424 5424 5425 5425 5425 5426 5426 5426 5425 5425
5422 5421 5420 5418 5417 5416 5415 5415 5414 5413 5413 5412 5412 5412 5412 5412 5412 5412 5412 5413 5413 5413 5414 5414 5415 5416 5417 5417 5418 5419 5419 5420 5421 5421 5422 5422 5422 5423 5423 5423 5423 5423 5423 5423
5415 5414 5413 5412 5411 5410 5410 5409 5409 5408 5408 5407 5407 5407 5408 5408 5408 5408 5408 5409 5409 5410 5411 5411 5412 5413 5414 5415 5415 5416 5417 5418 5418 5419 5420 5420 5420 5420 5420 5420 5420 5420 5420 5420
5408 5407 5406 5406 5405 5405 5404 5404 5403 5403 5403 5402 5403 5403 5403 5404 5404 5405 5405 5406 5406 5407 5408 5409 5410 5411 5412 5413 5413 5414 5415 5415 5416 5417 5417 5417 5418 5418 5418 5418 5418 5418 5418 5418
5402 5401 5400 5400 5399 5399 5399 5398 5398 5398 5398 5398 5398 5399 5399 5400 5401 5401 5402 5402 5403 5404 5405 5406 5408 5408 5409 5410 5411 5412 5412 5413 5414 5414 5415 5415 5415 5415 5416 5416 5416 5416 5416 5416
5396 5395 5395 5394 5394 5393 5393 5393 5393 5393 5393 5394 5394 5395 5396 5396 5397 5398 5399 5399 5400 5402 5403 5404 5405 5406 5407 5407 5408 5409 5410 5410 5411 5412 5412 5412 5413 5413 5413 5414 5414 5414 5414 5414